Starlink 30407

operational
NORAD ID: 57823 Int'l Des: 2023-138 Owner: SPXS Country: US Constellation: starlink
LEOCIRCULAR

关于 Starlink 30407

正在加载描述...

实时位置

正在加载3D地球...

即将过境

高度历史

Altitude vs Time

uPlot chart will show altitude changes over time

两行轨道根数

1 57823U 23138R 25306.49376779 .00004618 00000-0 17711-3 0 9999
2 57823 43.0041 127.1186 0002287 270.6456 89.4134 15.27603990120514
Epoch: Nov 2, 2025 • Age: 7 hours

当前状态

高度 487.5 km
速度 7.63 km/s
星下点 42.22°N, 90.57°W
发射日期 Sep 9, 2023
运行时间 2.1 years
类型 internet

技术详情

分类 Payload
质量 730.00 kg
干质量 700.00 kg
总质量 730.00 kg
长度 0.30 m
直径 4.10 m
跨度 29.00 m
形状 Box + pan
制造商 SPXS
平台类型 Starlink V2M
阶段状态 In Orbit
所有者/国家 SPXS/US

大型星座

Loading constellations...